Jackson Hawkins Field, MS

3:10 AM CDT on April 20, 2018 (GMT -0500)
Hawkins

Weather History for KHKS - May, 2013

Change the Weather History Date:

Friday, May 17, 2013

  Actual Average (KJAN) Record (KJAN)
Temperature  
Mean Temperature 76 °F -  
Max Temperature 84 °F 84 °F 95 °F (1899)
Min Temperature 71 °F 60 °F 42 °F (2011)
Cooling Degree Days 12    
Growing Degree Days 26 (Base 50)    
Moisture  
Dew Point 68 °F    
Average Humidity 79    
Maximum Humidity 90    
Minimum Humidity 63    
Precipitation  
Precipitation 0.00 in - - ()
Sea Level Pressure  
Sea Level Pressure 29.95 in    
Wind  
Wind Speed 9 mph (South)    
Max Wind Speed 13 mph    
Max Gust Speed 21 mph    
Visibility 10 miles    
Events Rain    
Averages and records for this station are not official NWS values.
T = Trace of Precipitation, MM = Missing Value Source: NWS Daily Summary

Daily Weather History Graph

Daily Weather History Graph

Search for Another Location

Airport or City:

Astronomy

May. 17, 2013 Rise Set
Actual Time 6:01 AM CDT 7:53 PM CDT
Civil Twilight 5:34 AM CDT 8:20 PM CDT
Nautical Twilight 5:01 AM CDT 8:53 PM CDT
Astronomical Twilight 4:26 AM CDT 9:28 PM CDT
Moon 12:24 PM CDT (5/17) 12:54 AM CDT (5/17)
Length of Visible Light 14h 46m
Length of Day
13h 52m
Waxing Crescent, 45% of the Moon is Illuminated
May 17
Waxing Crescent
May 17
First Quarter
May 24
Full
May 31
Last Quarter
Jun 8
New

Hourly Weather History & Observations

Time (CDT) Temp. Heat Index Dew Point Humidity Pressure Visibility Wind Dir Wind Speed Gust Speed Precip Events Conditions
12:02 AM 71.6 °F - 66.2 °F 83% 29.95 in 10.0 mi South 9.2 mph - N/A   Mostly Cloudy
12:27 AM 71.6 °F - 66.2 °F 83% 29.96 in 10.0 mi South 6.9 mph - N/A   Overcast
12:53 AM 72.0 °F - 66.9 °F 84% 29.93 in 10.0 mi South 5.8 mph - N/A   Overcast
1:50 AM 71.6 °F - 68.0 °F 88% 29.95 in 10.0 mi South 6.9 mph - N/A   Mostly Cloudy
1:53 AM 72.0 °F - 68.0 °F 87% 29.92 in 10.0 mi South 6.9 mph - N/A   Mostly Cloudy
2:17 AM 71.6 °F - 68.0 °F 88% 29.95 in 9.0 mi SSW 8.1 mph - 0.00 in Rain Light Rain
2:25 AM 71.6 °F - 68.0 °F 88% 29.95 in 10.0 mi South 12.7 mph 18.4 mph 0.00 in Rain Light Rain
2:31 AM 71.6 °F - 68.0 °F 88% 29.94 in 10.0 mi South 12.7 mph - 0.00 in   Overcast
2:53 AM 71.1 °F - 68.0 °F 90% 29.92 in 10.0 mi South 9.2 mph - 0.00 in   Overcast
3:53 AM 71.1 °F - 68.0 °F 90% 29.92 in 10.0 mi South 8.1 mph - N/A   Overcast
4:53 AM 71.1 °F - 68.0 °F 90% 29.92 in 10.0 mi South 11.5 mph - N/A   Overcast
5:53 AM 71.1 °F - 66.9 °F 87% 29.93 in 10.0 mi South 11.5 mph - N/A   Overcast
7:53 AM 72.0 °F - 68.0 °F 87% 29.96 in 9.0 mi South 11.5 mph - N/A   Overcast
8:31 AM 73.4 °F - 68.0 °F 83% 29.99 in 9.0 mi South 8.1 mph - N/A   Overcast
8:53 AM 73.0 °F - 68.0 °F 84% 29.98 in 10.0 mi South 6.9 mph 17.3 mph N/A   Overcast
9:53 AM 75.9 °F - 69.1 °F 79% 29.97 in 10.0 mi South 11.5 mph - N/A   Overcast
10:53 AM 77.0 °F - 68.0 °F 74% 29.98 in 10.0 mi South 12.7 mph 20.7 mph N/A   Overcast
11:21 AM 77.0 °F - 68.0 °F 74% 30.01 in 10.0 mi SSW 11.5 mph - N/A   Overcast
11:53 AM 78.1 °F - 68.0 °F 71% 29.99 in 10.0 mi SW 10.4 mph 20.7 mph N/A   Overcast
12:53 PM 81.0 °F 84.1 °F 69.1 °F 67% 29.97 in 10.0 mi SSW 6.9 mph - N/A   Mostly Cloudy
2:53 PM 82.9 °F 86.5 °F 69.1 °F 63% 29.95 in 10.0 mi SW 11.5 mph - N/A   Mostly Cloudy
3:53 PM 82.9 °F 86.5 °F 69.1 °F 63% 29.93 in 10.0 mi SSW 10.4 mph - N/A   Mostly Cloudy
4:53 PM 82.0 °F 85.5 °F 69.1 °F 65% 29.91 in 10.0 mi South 4.6 mph - N/A   Overcast
5:53 PM 82.9 °F 86.5 °F 69.1 °F 63% 29.91 in 10.0 mi SW 9.2 mph - N/A   Mostly Cloudy
6:53 PM 82.0 °F 85.9 °F 70.0 °F 67% 29.91 in 10.0 mi South 5.8 mph - N/A   Mostly Cloudy
7:53 PM 80.1 °F 83.2 °F 70.0 °F 71% 29.92 in 10.0 mi South 4.6 mph - N/A   Overcast
8:53 PM 79.0 °F - 71.1 °F 77% 29.94 in 10.0 mi South 3.5 mph - N/A   Overcast
9:53 PM 79.0 °F - 71.1 °F 77% 29.95 in 10.0 mi South 8.1 mph - N/A   Overcast
10:53 PM 77.0 °F - 70.0 °F 79% 29.97 in 10.0 mi South 6.9 mph - N/A   Mostly Cloudy
11:53 PM 75.9 °F - 69.1 °F 79% 29.96 in 10.0 mi South 9.2 mph - N/A   Clear